Change the Weather History Date:

Tuesday, April 1, 2014

  Actual Average Record
Temperature  
Mean Temperature 64 °F -  
Max Temperature 80 °F 70 °F 86 °F (2012)
Min Temperature 50 °F 48 °F 33 °F (2004)
Growing Degree Days 14 (Base 50)    
Moisture  
Dew Point 48 °F    
Average Humidity 56    
Maximum Humidity 83    
Minimum Humidity 36    
Precipitation  
Precipitation 0.00 in - - ()
Sea Level Pressure  
Sea Level Pressure 30.07 in    
Wind  
Wind Speed 9 mph (South)    
Max Wind Speed 21 mph    
Max Gust Speed 22 mph    
Visibility 10 miles    
Events Rain    
Averages and records for this station are not official NWS values.
T = Trace of Precipitation, MM = Missing Value Source: NWS Daily Summary

Daily Weather History Graph

Daily Weather History Graph

Search for Another Location

Airport or City:

Trip Planner

Search our weather history database for the weather conditions in past years. The results will help you decide how hot, cold, wet, or windy it might be!

Date:

Astronomy

Apr. 01, 2014 Rise Set
Actual Time 6:41 AM CDT 7:14 PM CDT
Civil Twilight 6:16 AM CDT 7:39 PM CDT
Nautical Twilight 5:46 AM CDT 8:08 PM CDT
Astronomical Twilight 5:16 AM CDT 8:39 PM CDT
Moon 7:49 AM CDT (4/1) 9:29 PM CDT (4/1)
Length of Visible Light 13h 23m
Length of Day
12h 33m
Waxing Crescent, 5% of the Moon is Illuminated
Apr 1
Waxing Crescent
Apr 7
First Quarter
Apr 15
Full
Apr 22
Last Quarter
Apr 29
New

Hourly Weather History & Observations

Time (CDT) Temp. Dew Point Humidity Pressure Visibility Wind Dir Wind Speed Gust Speed Precip Events Conditions
12:21 AM 64.4 °F 41.0 °F 42% 29.98 in 9.0 mi SSE 20.7 mph - N/A Rain Light Rain
12:32 AM 62.6 °F 41.0 °F 45% 29.99 in 10.0 mi SSE 16.1 mph - N/A   Scattered Clouds
12:58 AM 64.9 °F 37.4 °F 36% 30.01 in 10.0 mi South 12.7 mph - 0.00 in   Scattered Clouds
1:58 AM 64.4 °F 37.9 °F 38% 30.06 in 10.0 mi WSW 10.4 mph - N/A   Mostly Cloudy
2:08 AM 64.4 °F 37.4 °F 37% 30.06 in 10.0 mi West 6.9 mph - N/A Rain Light Rain
2:18 AM 62.6 °F 39.2 °F 42% 30.06 in 10.0 mi West 6.9 mph - N/A   Partly Cloudy
2:43 AM 60.8 °F 39.2 °F 45% 30.06 in 10.0 mi West 2.3 mph - N/A Rain Light Rain
2:44 AM 60.8 °F 39.2 °F 45% 30.06 in 10.0 mi West 2.3 mph - N/A   Partly Cloudy
2:58 AM 61.3 °F 40.3 °F 46% 30.09 in 10.0 mi NNW 3.5 mph - 0.00 in   Mostly Cloudy
3:58 AM 57.0 °F 44.8 °F 64% 30.10 in 10.0 mi South 2.3 mph - N/A   Overcast
4:58 AM 55.9 °F 45.5 °F 68% 30.11 in 10.0 mi SSW 5.8 mph - N/A   Overcast
5:58 AM 55.6 °F 45.3 °F 68% 30.12 in 10.0 mi ESE 2.3 mph - N/A   Mostly Cloudy
6:58 AM 50.5 °F 45.0 °F 81% 30.13 in 10.0 mi SE 5.8 mph - N/A   Partly Cloudy
7:58 AM 56.5 °F 47.5 °F 72% 30.14 in 10.0 mi SSE 3.5 mph - N/A   Mostly Cloudy
8:58 AM 65.3 °F 50.0 °F 58% 30.15 in 10.0 mi SSW 5.8 mph - N/A   Clear
9:58 AM 68.5 °F 52.2 °F 56% 30.15 in 10.0 mi SSW 8.1 mph - N/A   Clear
10:58 AM 70.0 °F 53.8 °F 56% 30.14 in 10.0 mi SW 8.1 mph - N/A   Clear
11:58 AM 73.6 °F 54.0 °F 50% 30.12 in 10.0 mi WSW 9.2 mph - N/A   Partly Cloudy
12:58 PM 73.6 °F 54.0 °F 50% 30.11 in 10.0 mi South 6.9 mph - N/A   Partly Cloudy
1:58 PM 76.5 °F 54.1 °F 46% 30.09 in 10.0 mi South 9.2 mph 21.9 mph N/A   Partly Cloudy
2:58 PM 77.5 °F 53.1 °F 42% 30.06 in 10.0 mi SSW 11.5 mph 17.3 mph N/A   Scattered Clouds
3:58 PM 79.3 °F 52.7 °F 39% 30.04 in 10.0 mi SSW 10.4 mph - N/A   Clear
4:58 PM 79.9 °F 53.2 °F 40% 30.03 in 10.0 mi South 9.2 mph - N/A   Clear
5:58 PM 79.0 °F 52.5 °F 40% 30.03 in 10.0 mi SSW 6.9 mph - N/A   Clear
6:58 PM 75.2 °F 53.8 °F 47% 30.03 in 10.0 mi SSW 5.8 mph - N/A   Clear
7:58 PM 66.6 °F 54.3 °F 65% 30.04 in 10.0 mi SSE 3.5 mph - N/A   Clear
8:58 PM 65.5 °F 54.7 °F 68% 30.05 in 10.0 mi SE 3.5 mph - N/A   Clear
9:58 PM 59.4 °F 54.1 °F 83% 30.05 in 10.0 mi SSE 4.6 mph - N/A   Clear
10:27 PM 60.8 °F 55.4 °F 82% 30.05 in 10.0 mi SSE 4.6 mph - N/A Rain Light Rain
10:36 PM 60.8 °F 55.4 °F 82% 30.05 in 10.0 mi SE 4.6 mph - N/A   Mostly Cloudy
10:58 PM 59.9 °F 54.3 °F 82% 30.06 in 10.0 mi SSE 3.5 mph - 0.00 in   Scattered Clouds
11:58 PM 58.5 °F 53.4 °F 83% 30.05 in 10.0 mi SSE 2.3 mph - N/A   Partly Cloudy